Other Public Products
Issued by NWS Grand Forks, ND

Home | Current Version | Previous Version | Graphics & Text | Print | Product List | Glossary On
Versions: 1 2 3 4 5 6 7 8 9 10 11 12 13 14 15 16 17 18 19 20 21 22 23 24 25 26 27 28 29 30 31 32 33 34 35 36 37 38 39 40 41 42 43 44 45 46 47 48 49 50
000
FPUS83 KFGF 311131
OPUFGF
PRAIRIE TO PINES WEATHER ROUNDUP
NATIONAL WEATHER SERVICE EASTERN NORTH DAKOTA/GRAND FORKS ND
600 AM CDT MON AUG 31 2015

 **SATELLITE DATA USED TO AUGMENT SKY COVER AT AUTOMATED STATIONS**
 *****  WEATHER ACROSS EASTERN NORTH DAKOTA  *****

CITY           SKY/WX    TMP DP  RH WIND       PRES   REMARKS
GRAND FORKS    PTCLDY    65  61  87 S9        29.63F
GRAND FORKS AF PTCLDY    64  63  95 S9        29.63F
GRAND CITY NWS   N/A     63 N/A N/A S13         N/A
BUXTON         NOT AVBL
DEVILS LAKE    CLOUDY    70  63  78 W18       29.68R
FARGO          CLEAR     66  59  78 SE15G28   29.65F
WAHPETON ARPT  SUNNY     63  57  82 S15       29.71S
$$

 *****  WEATHER ACROSS CENTRAL AND WESTERN NORTH DAKOTA  *****

CITY           SKY/WX    TMP DP  RH WIND       PRES   REMARKS
JAMESTOWN      MOCLDY    66  63  90 S12       29.66R
BISMARCK       CLOUDY    69  57  65 N13       29.69R
MINOT          LGT RAIN  62  59  90 N5        29.68F
MINOT AFB      CLOUDY    63  63 100 CALM      29.70R
GARRISON         N/A     63  58  83 CALM      29.71R
WILLISTON        N/A    N/A N/A N/A MISG      29.79R
DICKINSON      MOCLDY    60  57  89 W13       29.79R
HETTINGER      MOCLDY    61  52  72 NW12      29.81R
$$

 *****  OTHER OBSERVATIONS NORTHEAST NORTH DAKOTA  *****

CITY           SKY/WX    TMP DP  RH WIND       PRES   REMARKS
WALHALLA       FAIR      68  68 100 MISG      29.60R THUNDER
LANGDON        FAIR      66  63  88 NW8       29.67R FOG
CAVALIER       PTSUNNY   68  66  94 S6        29.62R
GRAFTON        FAIR      64  64 100 S9        29.63S FOG
CANDO          PTSUNNY   64  59  82 SW5       29.72R
FORT TOTTEN      N/A     69  69 100 SW2       29.95S
ROLLA          CLOUDY    66  55  68 NW8       29.72R
RUGBY          FAIR      61  59  94 NW3       29.70F
 ***** THE ABOVE OBSERVATIONS ARE NON NWS ARE NOT QUALITY
        CONTROLLED AND MAY MIS-REPORT RAIN FOR SNOW...
$$

 *****  OTHER OBSERVATIONS SOUTHEAST NORTH DAKOTA *****

CITY           SKY/WX    TMP DP  RH WIND       PRES   REMARKS
COOPERSTOWN    NOT AVBL
VALLEY CITY    FAIR      66  66 100 SW16G24   29.67R
OAKES            N/A     68  68 100 S17G23    29.67R
GWINNER        FAIR      72  59  64 S17G24    29.67S
SHEYENNE NWR     N/A     62  59  91 SE7       29.95S
BUFFALO        NOT AVBL
WYNDMERE         N/A    N/A N/A N/A SE3         N/A
 ***** THE ABOVE OBSERVATIONS ARE NON NWS ARE NOT QUALITY
       CONTROLLED AND MAY MIS-REPORT RAIN FOR SNOW...
$$

  *****  WEATHER ACROSS NORTHERN MINNESOTA  *****

CITY           SKY/WX    TMP DP  RH WIND       PRES   REMARKS
FLAG ISLAND    CLEAR     68  64  88 S9        29.66S
WARROAD        CLEAR     66  63  88 S6        29.68R
ROSEAU         PTCLDY    66  61  82 S7        29.67R
HALLOCK        MOCLDY    66  63  88 S13       29.62F
THF RVR FALLS  PTCLDY   N/A N/A N/A S8        29.67S
HALSTAD        NOT AVBL
FOSSTON        CLEAR     64  55  72 S10       29.71S
BAUDETTE       CLEAR     64  59  83 S7        29.69F
WASKISH        CLEAR     64  61  88 S7        29.72S
CROOKSTON      PTCLDY    66  61  82 S14       29.67S
$$
  *****  WEATHER ACROSS CENTRAL AND WEST MINNESOTA  *****

CITY           SKY/WX    TMP DP  RH WIND       PRES   REMARKS
BEMIDJI        CLEAR     64  59  81 S13       29.75S
PARK RAPIDS    CLEAR     63  60  90 S12       29.78F FOG
WADENA         CLEAR     63  61  94 S7        29.80S
DETROIT LAKES  CLEAR     68  59  73 S12       29.75S
MOORHEAD       CLEAR     66  61  82 S18       29.68F
FERGUS FALLS   CLEAR     66  57  72 S18       29.73F
ELBOW LAKE     FAIR      64  60  87 S18G28    29.77S
MORRIS MN      CLEAR     63  63 100 S16       29.78F FOG
STAPLES        CLEAR     63  61  94 S10G17    29.82S
WHEATON        CLEAR     63  57  82 SE10      29.75S
$$
  *****  WEATHER ELSEWHERE ACROSS MINNESOTA  *****

CITY           SKY/WX    TMP DP  RH WIND       PRES   REMARKS
DULUTH         MOCLDY    64  62  93 S12       29.88F FOG
INTRNTL FALLS  PTCLDY    64  61  90 VRB5      29.74F
ELY            CLEAR     63  59  88 S5        29.85S
CLOQUET        CLOUDY    64  63  94 S7        29.88S
BRAINERD       MOCLDY    63  62  97 S12       29.85S FOG
HIBBING        PTCLDY    62  60  93 SE3       29.85F
ALEXANDRIA     CLEAR     65  61  87 S10       29.84S
SAINT CLOUD    PTCLDY    64  64 100 S9        29.88S FOG
MINNEAPOLIS    MOCLDY    63  62  97 SE7       29.93S FOG
$$

  *****  WEATHER ACROSS SOUTH DAKOTA  *****

CITY           SKY/WX    TMP DP  RH WIND       PRES   REMARKS
SIOUX FALLS    PTCLDY    65  63  93 S10       29.89S
BROOKINGS      CLEAR     64  61  88 S16       29.87F
WATERTOWN      CLEAR     65  61  87 S15       29.81S
HURON          CLEAR     66  63  90 S12G22    29.76F
SISSETON         N/A     73  59  61 SW24G39   29.68F
ABERDEEN       CLEAR     67  62  84 S14G22    29.69F
MITCHELL       CLEAR     68  64  87 S13       29.82S
PIERRE         MOCLDY    71  52  50 S12       29.67S
MOBRIDGE       CLOUDY    70  58  65 S8        29.64S
RAPID CITY     CLOUDY    76  50  40 W12       29.79R
$$

  *****  SOME WEATHER IN NEARBY STATES *****

CITY           SKY/WX    TMP DP  RH WIND       PRES   REMARKS
GLASGOW MT     CLEAR     53  47  79 W13       29.82R
GREAT FALLS MT PTCLDY    53  33  46 SW18G28   29.92R
CHEYENNE WY    CLOUDY    68  45  43 W28G37    30.10R
SCOTTSBLUFF NE CLOUDY    67  54  63 MISG      29.92S
OMAHA NE       CLEAR     66  65  96 SE8       29.95R FOG
DES MOINES IA  CLEAR     69  65  86 SE8       29.97S
DAVENPORT IA   CLEAR     62  61  96 E5        30.03S FOG
CHICAGO IL     FOG       62  62 100 CALM      30.05R VSB 1/8
EAU CLAIRE WI  CLOUDY    63  61  93 S5        29.97S
LA CROSSE WI   MOCLDY    65  63  93 S6        30.00S
$$

  *****  SOME NATIONAL WEATHER *****

CITY           SKY/WX    TMP DP  RH WIND       PRES   REMARKS
LA GUARDIA NY  MOCLDY    78  66  66 W6        30.02R
RALEIGH NC     RAIN      68  66  94 NW8       30.13R FOG
ATLANTA GA     MOCLDY    67  64  90 E10       30.10S
NEW ORLEANS LA PTCLDY    76  69  79 CALM      30.02R
OKLAHOMA CITY  PTCLDY    67  64  90 SE8       29.96R
ALBUQUERQUE NM PTCLDY    69  49  48 S3        30.15R
SALT LAKE CITY MOCLDY    67  39  35 N3        30.04R
LOS ANGELES CA PTCLDY    69  64  84 CALM      29.84S
BOISE ID       CLEAR     56  44  64 CALM      30.06S
SEATTLE WA     CLOUDY    62  48  60 S15       29.97F
$$

*** WEATHER ACROSS MANITOBA...SASKATCHEWAN AND ONTARIO ***
                ***ONTARIO***

CITY           SKY/WX    TMP DP  RH WIND       PRES   REMARKS
GERALDTON      FOG       59  59 100 SE7       29.89S VSB 1/8
THUNDER BAY    MOCLDY    55  55 100 NE5       29.87S FOG
SIOUX LOOKOUT  PTCLDY    66  64  94 S8        29.73F
TORONTO        PTCLDY    66  64  94 W7        30.01R
BIG TROUT LK   CLOUDY    50  48  93 SE13G22   29.76F
PICKLE LAKE    MOCLDY    64  61  88 SE12G18   29.74
DRYDEN         CLEAR     68  63  83 S16G24    29.72S
KENORA         PTCLDY    68  63  83 S10G17    29.68S
$$
                *** MANITOBA***

CITY           SKY/WX    TMP DP  RH WIND       PRES   REMARKS
BRANDON        LGT RAIN  61  57  88 W12       29.69R
DAUPHIN        MOCLDY    63  55  77 W6        29.61R
ISLAND LAKE    LGT RAIN  63  61  94 SE7       29.53F
PILOT MOUND      N/A     63  59  88 NE7         N/A
THE PAS        MOCLDY    57  55  94 S6        29.49S
THOMPSON       DRIZZLE   55  54  94 E5        29.54F FOG
WINNIPEG       TSTM      66  64  94 W5        29.62
LYNN LAKE      CLOUDY    57  57 100 MISG      29.50S FOG
CHURCHILL      LGT RAIN  46  46 100 SE17      29.77F
$$
                ***SASKATCHEWAN***

CITY           SKY/WX    TMP DP  RH WIND       PRES   REMARKS
ESTEVAN        LGT RAIN  59  54  82 NW17G24   29.78R
KINDERSLEY     PTCLDY    50  39  66 SW10      29.60R
LLOYDMINSTER   MOCLDY    52  45  76 W10       29.53R
PRINCE ALBERT  CLOUDY    54  45  71 SW3       29.49F
REGINA         CLOUDY    55  54  94 S8        29.68F
YORKTON        MOCLDY    63  54  72 SW10      29.61S


USA.gov is the U.S. government's official web portal to all federal, state and local government web resources and services.